Tracking 30986 objects as of 9-Jul-2025
HD Live streaming from Space Station
objects crossing your sky now

CZ-6A DEB

Track CZ-6A DEB now!
10-day predictions


NORAD ID: 56623
Int'l Code: 2022-151AEX
Perigee: 830.4 km
Apogee: 979.2 km
Inclination: 98.9 °
Period: 102.9 minutes
Semi major axis: 7275 km
RCS: Unknown
Launch date: November 11, 2022
Source: People's Republic of China (PRC)
Launch site: Taiyaun Space Center, China (TSC)

Note: This is SATELLITE DEBRIS
Your satellite tracking list
Your tracking list is empty




NASA's NSSDC Master Catalog

Two Line Element Set (TLE):
1 56623U 22151AEX 25184.21704880  .00000501  00000-0  36095-3 0  9995
2 56623  98.8576 167.0811 0102258 281.4355  77.5339 13.98897744112432
Source of the keplerian elements: AFSPC